レモン彗星

405P/Lemmon (2014)

English version
Home page
Updated on January 23, 2021

---------------------------------------------------------------------

・ プロフィール

符号 405P/2013 TL117
発見日 2013年10月4日
発見光度 20.1等
発見者 J. A. Johnson (Mount Lemmon Survey)

・ 写真集

・ 軌道要素

Epoch 2014 Mar. 4.0 TT = JDT 2456720.5                                          
T 2014 Feb. 18.21810 TT                                 Rudenko                 
q   1.1176748            (2000.0)            P               Q                  
n   0.14401532     Peri.  112.19969     -0.43073324     -0.90242888             
a   3.6046540      Node     3.36035     +0.75645270     -0.36678223             
e   0.6899356      Incl.    9.36577     +0.49218715     -0.22603740             
P   6.84                                                                        
From 525 observations 2013 Oct. 4-2020 Oct. 25, mean residual 0".5.             

・ 星図

・ 光度変化

        m1 = 17.0 + 5 logΔ + 10.0 log r

---------------------------------------------------------------------

軌道要素はM.P.E.C. 2020-U231に掲載されたものです。
星図はステラナビゲータ Ver.8 (アストロアーツ) で作成したものです。
光度グラフはComet for Windowsで作成したものです。

---------------------------------------------------------------------

Copyright(C) Seiichi Yoshida (comet@aerith.net). All rights reserved.